Tracking 24120 objects as of 5-Dec-2021
HD Live streaming from Space Station
objects crossing your sky now

METEOR 2-10 DEB

Track METEOR 2-10 DEB now!
10-day predictions


NORAD ID: 38537
Int'l Code: 1983-109E
Perigee: 675.5 km
Apogee: 764.8 km
Inclination: 81.1 °
Period: 99.0 minutes
Semi major axis: 7091 km
RCS: 0.0027 m2 (small)
Launch date: October 28, 1983
Source: Commonwealth of Independent States (former USSR) (CIS)
Launch site: PLESETSK MISSILE AND SPACE COMPLEX (PKMTR)

Note: This is SATELLITE DEBRIS
aabbcc
Your satellite tracking list
Your tracking list is empty




NASA's NSSDC Master Catalog

Two Line Element Set (TLE):
1 38537U 83109E   21335.70401142  .00003119  00000-0  71953-3 0  9992
2 38537  81.1498 109.6831 0062975 357.2077   2.8756 14.53879492768547
Source of the keplerian elements: AFSPC